| time (UTC) | temp C | wind direction | speed KPH | gust KPH | rain 1hr cm | rain 24hr cm | rain mn cm | humidity % | barometer mb |
| 20260502123040 | 7 | 120 | 0.0 | 0.0 | 0.00 | 0.00 | 0.00 | 41 | 1009.2 |
| 20260502121545 | 7 | 120 | 0.0 | 0.0 | 0.00 | 0.00 | 0.00 | 41 | 1009.2 |
| 20260502114537 | 8 | 120 | 0.0 | 0.0 | 0.00 | 0.00 | 0.00 | 39 | 1009.2 |
| 20260502113032 | 8 | 120 | 0.0 | 0.0 | 0.00 | 0.00 | 0.00 | 38 | 1009.1 |
| 20260502111530 | 9 | 120 | 0.0 | 0.0 | 0.00 | 0.00 | 0.00 | 37 | 1009.2 |
| 20260502110028 | 9 | 120 | 0.0 | 1.6 | 0.00 | 0.00 | 0.00 | 36 | 1009.2 |
| 20260502104541 | 9 | 120 | 0.0 | 1.6 | 0.00 | 0.00 | 0.00 | 36 | 1009.1 |
| 20260502103028 | 10 | 120 | 0.0 | 1.6 | 0.00 | 0.00 | 0.00 | 36 | 1009.1 |
| 20260502101522 | 10 | 120 | 0.0 | 1.6 | 0.00 | 0.00 | 0.00 | 36 | 1009.1 |
| 20260502091521 | 10 | 119 | 0.0 | 1.6 | 0.00 | 0.00 | 0.00 | 34 | 1009.1 |
| 20260502071506 | 11 | 94 | 0.0 | 1.6 | 0.00 | 0.00 | 0.00 | 32 | 1009.4 |
| 20260502070007 | 11 | 94 | 0.0 | 1.6 | 0.00 | 0.00 | 0.00 | 31 | 1009.4 |
| 20260502064507 | 11 | 94 | 0.0 | 3.2 | 0.00 | 0.00 | 0.00 | 31 | 1009.4 |
| 20260502063001 | 11 | 94 | 0.0 | 4.8 | 0.00 | 0.00 | 0.00 | 31 | 1009.3 |
| 20260502061600 | 11 | 94 | 0.0 | 4.8 | 0.00 | 0.00 | 0.00 | 30 | 1009.3 |
| 20260502054558 | 12 | 82 | 0.0 | 3.2 | 0.00 | 0.00 | 0.00 | 28 | 1009.1 |
| 20260502053058 | 12 | 80 | 0.0 | 1.6 | 0.00 | 0.00 | 0.00 | 27 | 1008.8 |
| 20260502051639 | 12 | 46 | 0.0 | 1.6 | 0.00 | 0.00 | 0.00 | 26 | 1008.7 |
| 20260502050054 | 13 | 13 | 0.0 | 1.6 | 0.00 | 0.00 | 0.00 | 25 | 1008.6 |
| 20260502044601 | 14 | 13 | 0.0 | 1.6 | 0.00 | 0.00 | 0.00 | 24 | 1008.3 |
| 20260502043050 | 15 | 13 | 0.0 | 0.0 | 0.00 | 0.00 | 0.00 | 23 | 1008.1 |
| 20260502041548 | 15 | 13 | 0.0 | 3.2 | 0.00 | 0.00 | 0.00 | 22 | 1007.7 |
| 20260502040046 | 16 | 18 | 0.0 | 1.6 | 0.00 | 0.00 | 0.00 | 22 | 1007.5 |
| 20260502034547 | 16 | 19 | 0.0 | 3.2 | 0.00 | 0.00 | 0.00 | 21 | 1007.5 |
| 20260502033050 | 16 | 19 | 0.0 | 4.8 | 0.00 | 0.00 | 0.00 | 21 | 1007.1 |
| 20260502031602 | 16 | 19 | 0.0 | 3.2 | 0.00 | 0.00 | 0.00 | 21 | 1006.9 |
| 20260502030045 | 17 | 15 | 0.0 | 12.9 | 0.00 | 0.00 | 0.00 | 20 | 1006.6 |
| 20260502024546 | 17 | 294 | 0.0 | 8.0 | 0.00 | 0.00 | 0.00 | 20 | 1006.5 |
| 20260502023041 | 17 | 296 | 1.6 | 9.7 | 0.00 | 0.00 | 0.00 | 19 | 1006.1 |
| 20260502021540 | 18 | 330 | 0.0 | 1.6 | 0.00 | 0.00 | 0.00 | 18 | 1005.8 |
| 20260502020044 | 18 | 331 | 0.0 | 0.0 | 0.00 | 0.00 | 0.00 | 17 | 1005.5 |
| 20260502014541 | 18 | 331 | 0.0 | 3.2 | 0.00 | 0.00 | 0.00 | 17 | 1005.3 |
| 20260502013040 | 19 | 331 | 0.0 | 3.2 | 0.00 | 0.00 | 0.00 | 17 | 1005.2 |
| 20260502011546 | 19 | 321 | 0.0 | 1.6 | 0.00 | 0.00 | 0.00 | 17 | 1005.1 |
| 20260502010038 | 19 | 319 | 0.0 | 3.2 | 0.00 | 0.00 | 0.00 | 17 | 1005.0 |
| 20260502004538 | 20 | 317 | 0.0 | 4.8 | 0.00 | 0.00 | 0.00 | 17 | 1004.9 |
| 20260502003037 | 20 | 360 | 0.0 | 4.8 | 0.00 | 0.00 | 0.00 | 17 | 1004.8 |
| 20260502001537 | 20 | 360 | 0.0 | 6.4 | 0.00 | 0.00 | 0.00 | 16 | 1004.9 |
| 20260502000036 | 20 | 5 | 0.0 | 8.0 | 0.00 | 0.00 | 0.00 | 16 | 1004.9 |
| 20260501234548 | 20 | 323 | 0.0 | 4.8 | 0.00 | 0.00 | 0.00 | 16 | 1005.0 |
| 20260501233035 | 21 | 236 | 0.0 | 3.2 | 0.00 | 0.00 | 0.00 | 16 | 1004.9 |
| 20260501231547 | 22 | 221 | 0.0 | 11.3 | 0.00 | 0.00 | 0.00 | 15 | 1005.0 |
| 20260501230034 | 22 | 232 | 0.0 | 6.4 | 0.00 | 0.00 | 0.00 | 15 | 1004.9 |
| 20260501224533 | 22 | 234 | 0.0 | 6.4 | 0.00 | 0.00 | 0.00 | 15 | 1004.9 |
| 20260501223032 | 23 | 287 | 0.0 | 6.4 | 0.00 | 0.00 | 0.00 | 15 | 1005.0 |
| 20260501221533 | 23 | 303 | 0.0 | 3.2 | 0.00 | 0.00 | 0.00 | 14 | 1005.2 |
| 20260501220030 | 23 | 248 | 0.0 | 6.4 | 0.00 | 0.00 | 0.00 | 15 | 1005.2 |
| 20260501214541 | 22 | 76 | 1.6 | 9.7 | 0.00 | 0.00 | 0.00 | 13 | 1005.4 |
| 20260501213028 | 21 | 20 | 1.6 | 9.7 | 0.00 | 0.00 | 0.00 | 14 | 1005.7 |
| 20260501211528 | 22 | 42 | 0.0 | 4.8 | 0.00 | 0.00 | 0.00 | 14 | 1005.8 |
| 20260501210027 | 22 | 42 | 0.0 | 8.0 | 0.00 | 0.00 | 0.00 | 15 | 1006.0 |
| 20260501204527 | 22 | 86 | 0.0 | 6.4 | 0.00 | 0.00 | 0.00 | 15 | 1006.1 |
| 20260501203026 | 22 | 327 | 0.0 | 4.8 | 0.00 | 0.00 | 0.00 | 15 | 1006.1 |
| 20260501201526 | 22 | 225 | 0.0 | 8.0 | 0.00 | 0.00 | 0.00 | 15 | 1006.2 |
| 20260501200025 | 22 | 340 | 0.0 | 12.9 | 0.00 | 0.00 | 0.00 | 15 | 1006.1 |
| 20260501194526 | 23 | 259 | 0.0 | 4.8 | 0.00 | 0.00 | 0.00 | 15 | 1006.3 |
| 20260501193031 | 22 | 325 | 0.0 | 8.0 | 0.00 | 0.00 | 0.00 | 16 | 1006.5 |
| 20260501191526 | 23 | 261 | 0.0 | 11.3 | 0.00 | 0.00 | 0.00 | 15 | 1006.5 |
| 20260501190021 | 23 | 5 | 3.2 | 16.1 | 0.00 | 0.00 | 0.00 | 15 | 1006.6 |
| 20260501184519 | 22 | 59 | 0.0 | 3.2 | 0.00 | 0.00 | 0.00 | 16 | 1006.8 |
| 20260501183018 | 22 | 360 | 3.2 | 9.7 | 0.00 | 0.00 | 0.00 | 17 | 1006.9 |
| 20260501181514 | 21 | 9 | 3.2 | 12.9 | 0.00 | 0.00 | 0.00 | 18 | 1007.1 |
| 20260501180018 | 21 | 360 | 0.0 | 12.9 | 0.00 | 0.00 | 0.00 | 19 | 1007.2 |
| 20260501174510 | 20 | 9 | 0.0 | 9.7 | 0.00 | 0.00 | 0.00 | 20 | 1007.2 |
| 20260501173007 | 20 | 5 | 0.0 | 9.7 | 0.00 | 0.00 | 0.00 | 20 | 1007.2 |
| 20260501171504 | 20 | 29 | 3.2 | 9.7 | 0.00 | 0.00 | 0.00 | 19 | 1007.3 |
| 20260501170002 | 19 | 51 | 0.0 | 9.7 | 0.00 | 0.00 | 0.00 | 19 | 1007.1 |
| 20260501164559 | 18 | 78 | 1.6 | 11.3 | 0.00 | 0.00 | 0.00 | 20 | 1007.2 |
| 20260501163054 | 18 | 82 | 1.6 | 6.4 | 0.00 | 0.00 | 0.00 | 20 | 1007.1 |
| 20260501161553 | 17 | 5 | 1.6 | 14.5 | 0.00 | 0.00 | 0.00 | 21 | 1006.9 |
| 20260501160055 | 17 | 5 | 1.6 | 9.7 | 0.00 | 0.00 | 0.00 | 22 | 1006.9 |
| 20260501154604 | 17 | 13 | 1.6 | 9.7 | 0.00 | 0.00 | 0.00 | 22 | 1006.8 |
| 20260501153045 | 17 | 11 | 1.6 | 12.9 | 0.00 | 0.00 | 0.00 | 24 | 1006.7 |
| 20260501151547 | 16 | 114 | 0.0 | 6.4 | 0.00 | 0.00 | 0.00 | 24 | 1006.5 |
| 20260501150042 | 15 | 96 | 0.0 | 4.8 | 0.00 | 0.00 | 0.00 | 26 | 1006.6 |
| 20260501144537 | 13 | 300 | 0.0 | 3.2 | 0.00 | 0.00 | 0.00 | 29 | 1006.5 |
| 20260501143028 | 12 | 299 | 0.0 | 0.0 | 0.00 | 0.00 | 0.00 | 30 | 1006.5 |
| 20260501141528 | 11 | 299 | 0.0 | 0.0 | 0.00 | 0.00 | 0.00 | 34 | 1006.4 |
| 20260501140026 | 10 | 299 | 0.0 | 1.6 | 0.00 | 0.00 | 0.00 | 36 | 1006.4 |
| 20260501134524 | 7 | 299 | 0.0 | 0.0 | 0.00 | 0.00 | 0.00 | 37 | 1006.2 |